TimeEST,TemperatureF,Dew PointF,Humidity,Sea Level PressureIn,VisibilityMPH,Wind Direction,Wind SpeedMPH,Gust SpeedMPH,PrecipitationIn,Events,Conditions,WindDirDegrees,DateUTC
12:09 AM,51.8,50.0,94,29.80,3.0,Calm,Calm,-,0.01,Rain,Rain,0,2011-12-23 05:09:00
12:35 AM,51.8,48.2,88,29.77,5.0,SE,3.5,-,0.01,Rain,Rain,130,2011-12-23 05:35:00
12:53 AM,51.1,50.0,96,29.76,4.0,Calm,Calm,-,0.02,Rain,Rain,0,2011-12-23 05:53:00
1:16 AM,51.8,48.2,88,29.76,2.0,Calm,Calm,-,0.02,Rain,Rain,0,2011-12-23 06:16:00
1:28 AM,50.0,48.2,94,29.76,3.0,Calm,Calm,-,0.02,Rain,Rain,0,2011-12-23 06:28:00
1:53 AM,51.1,48.9,92,29.76,4.0,Calm,Calm,-,0.04,Rain,Rain,0,2011-12-23 06:53:00
2:15 AM,51.8,48.2,88,29.81,1.8,Variable,3.5,-,0.09,Rain,Rain,0,2011-12-23 07:15:00
2:21 AM,51.8,50.0,94,29.81,2.0,Calm,Calm,-,0.11,Rain,Rain,0,2011-12-23 07:21:00
2:27 AM,51.8,50.0,94,29.81,6.0,Calm,Calm,-,0.11,Rain,Rain,0,2011-12-23 07:27:00
2:41 AM,51.8,48.2,88,29.82,10.0,SE,4.6,-,0.12,Rain,Rain,130,2011-12-23 07:41:00
2:53 AM,51.1,50.0,96,29.82,8.0,Calm,Calm,-,0.12,Rain,Rain,0,2011-12-23 07:53:00
3:53 AM,51.1,46.9,86,29.86,10.0,Calm,Calm,-,0.00,Rain,Rain,0,2011-12-23 08:53:00
4:53 AM,51.1,45.0,80,29.91,10.0,Calm,Calm,-,0.00,Rain,Rain,0,2011-12-23 09:53:00
5:53 AM,51.1,43.0,74,29.96,10.0,Calm,Calm,-,0.00,,Partly Cloudy,0,2011-12-23 10:53:00
6:53 AM,51.1,39.9,66,30.00,10.0,West,3.5,-,N/A,,Partly Cloudy,270,2011-12-23 11:53:00
7:53 AM,50.0,39.0,66,30.04,10.0,Variable,5.8,-,N/A,,Partly Cloudy,0,2011-12-23 12:53:00
8:53 AM,53.1,39.9,61,30.07,10.0,NW,11.5,-,N/A,,Clear,320,2011-12-23 13:53:00
9:53 AM,55.0,39.9,57,30.10,10.0,North,13.8,-,N/A,,Scattered Clouds,350,2011-12-23 14:53:00
10:53 AM,55.0,37.9,53,30.11,10.0,North,13.8,-,N/A,,Scattered Clouds,350,2011-12-23 15:53:00
11:53 AM,54.0,37.9,55,30.12,10.0,Variable,4.6,-,N/A,,Mostly Cloudy,0,2011-12-23 16:53:00
1:20 PM,53.6,37.4,54,30.11,10.0,NNW,5.8,-,N/A,,Partly Cloudy,340,2011-12-23 18:20:00
1:53 PM,55.0,37.9,53,30.11,10.0,Variable,3.5,-,N/A,,Overcast,0,2011-12-23 18:53:00
2:53 PM,54.0,37.0,53,30.12,10.0,North,5.8,-,N/A,,Overcast,350,2011-12-23 19:53:00
3:53 PM,52.0,36.0,54,30.14,10.0,Calm,Calm,-,N/A,,Overcast,0,2011-12-23 20:53:00
4:53 PM,50.0,35.1,57,30.16,10.0,North,4.6,-,N/A,,Overcast,350,2011-12-23 21:53:00
5:53 PM,48.0,34.0,58,30.18,10.0,Variable,3.5,-,N/A,,Overcast,0,2011-12-23 22:53:00
6:53 PM,46.9,34.0,61,30.21,10.0,Calm,Calm,-,N/A,,Overcast,0,2011-12-23 23:53:00
7:53 PM,46.0,34.0,63,30.21,10.0,ESE,3.5,-,N/A,,Overcast,110,2011-12-24 00:53:00
8:53 PM,44.1,35.1,71,30.23,10.0,Calm,Calm,-,N/A,,Overcast,0,2011-12-24 01:53:00
9:53 PM,44.1,37.0,76,30.23,10.0,Calm,Calm,-,N/A,,Overcast,0,2011-12-24 02:53:00
10:53 PM,44.1,37.0,76,30.23,10.0,Calm,Calm,-,N/A,,Overcast,0,2011-12-24 03:53:00
11:53 PM,45.0,34.0,65,30.24,10.0,Calm,Calm,-,N/A,,Overcast,0,2011-12-24 04:53:00